TimeMST,TemperatureF,Dew PointF,Humidity,Sea Level PressureIn,VisibilityMPH,Wind Direction,Wind SpeedMPH,Gust SpeedMPH,PrecipitationIn,Events,Conditions,WindDirDegrees,DateUTC
12:55 AM,71.6,62.6,73,29.94,10.0,West,8.1,-,N/A,,Mostly Cloudy,260,2012-09-06 07:55:00
1:55 AM,73.4,62.6,69,29.94,10.0,West,4.6,-,N/A,,Mostly Cloudy,260,2012-09-06 08:55:00
2:55 AM,71.6,62.6,73,29.93,10.0,Calm,Calm,-,N/A,,Mostly Cloudy,0,2012-09-06 09:55:00
3:55 AM,69.8,62.6,78,29.92,10.0,West,5.8,-,N/A,,Mostly Cloudy,270,2012-09-06 10:55:00
4:55 AM,69.8,62.6,78,29.93,10.0,WSW,5.8,-,N/A,,Mostly Cloudy,240,2012-09-06 11:55:00
5:55 AM,69.8,62.6,78,29.95,10.0,South,3.5,-,N/A,,Mostly Cloudy,170,2012-09-06 12:55:00
6:55 AM,69.8,62.6,78,29.97,10.0,North,-9999.0,-,N/A,,Scattered Clouds,0,2012-09-06 13:55:00
7:55 AM,73.4,62.6,69,29.97,10.0,WNW,5.8,-,N/A,,Scattered Clouds,300,2012-09-06 14:55:00
8:55 AM,75.2,62.6,65,29.99,10.0,NNE,3.5,-,N/A,,Mostly Cloudy,30,2012-09-06 15:55:00
9:55 AM,78.8,60.8,54,29.99,10.0,Variable,5.8,-,N/A,,Scattered Clouds,0,2012-09-06 16:55:00
10:55 AM,82.4,62.6,51,29.97,10.0,Variable,4.6,-,N/A,,Scattered Clouds,0,2012-09-06 17:55:00
11:55 AM,84.2,59.0,42,29.94,10.0,Variable,4.6,-,N/A,Thunderstorm,Scattered Clouds,0,2012-09-06 18:55:00
12:55 PM,86.0,59.0,40,29.93,10.0,West,13.8,-,N/A,Thunderstorm,Mostly Cloudy,270,2012-09-06 19:55:00
1:55 PM,84.2,57.2,40,29.89,10.0,West,9.2,-,N/A,Thunderstorm,Mostly Cloudy,270,2012-09-06 20:55:00
2:28 PM,82.4,60.8,48,30.08,10.0,WNW,8.1,-,N/A,Rain-Thunderstorm,Light Thunderstorms and Rain,300,2012-09-06 21:28:00
2:55 PM,73.4,66.2,78,29.91,10.0,West,15.0,18.4,N/A,Rain-Thunderstorm,Light Thunderstorms and Rain,260,2012-09-06 21:55:00
3:19 PM,73.4,64.4,73,30.08,10.0,West,11.5,-,N/A,Thunderstorm,Mostly Cloudy,270,2012-09-06 22:19:00
3:55 PM,73.4,64.4,73,29.93,10.0,West,12.7,-,N/A,Thunderstorm,Mostly Cloudy,270,2012-09-06 22:55:00
10:55 PM,69.8,64.4,83,29.99,10.0,NNW,3.5,-,N/A,,Overcast,340,2012-09-07 05:55:00
11:55 PM,69.8,64.4,83,29.97,10.0,Calm,Calm,-,N/A,,Overcast,0,2012-09-07 06:55:00